Location: Ferchesar
(52.6477°N, 12.4298°E)
Time: 12:28:12
(UTC+02:00)

Transit 4A - Pass Details

Date: 28 February 2021
Orbit: 869 x 975 km, 66.8° (Epoch: 15 April)

Event Time Altitude Azimuth Distance (km) Brightness Sun altitude
Rises 20:40:24 0° 317° (NW) 3,586 12.0 -26.5°
Reaches altitude 10° 20:43:14 10° 307° (NW) 2,621 11.2 -26.9°
Maximum altitude 20:48:24 30° 249° (WSW) 1,565 9.4 -27.6°
Enters shadow 20:51:51 17° 200° (SSW) 2,084 9.6 -28.0°
Drops below altitude 10° 20:53:25 10° 190° (S) 2,547 - -28.2°
Sets 20:56:09 0° 180° (S) 3,469 - -28.6°
